This demonstration page uses our WeatherBlox Daily Observations layout. Learn more.

Hourly Observations for April 21, 2016

Temp ( °F °C ) Dew Point ( °F °C ) Humidity (%) Winds ( mph kmh ) Pressure ( in mb ) Visibility ( mi km ) Precip ( " mm )
12:15 am 00:15 Clear 46 7.5 43 6.1 91 91 WNW 7 11 30 1016 10 16.0934 0 0
12:35 am 00:35 Clear 45 7.3 43 6 92 92 WNW 7 11 30 1016 10 16.0934 0 0
12:55 am 00:55 Partly Cloudy 45 7.2 43 6 92 92 WNW 5 7 30 1016 10 16.0934 0 0
1:15 am 01:15 Cloudy 45 7.3 43 6 92 92 WNW 6 9 30 1016 10 16.0934 0 0
1:35 am 01:35 Cloudy 46 7.8 44 6.5 92 92 Calm 30 1016 10 16.0934 0 0
1:55 am 01:55 Cloudy 46 8 44 6.5 90 90 Calm 30 1016 10 16.0934 0 0
2:15 am 02:15 Cloudy 47 8.2 44 6.7 90 90 Calm 30 1016 10 16.0934 0 0
2:35 am 02:35 Mostly Cloudy 47 8.6 44 6.8 89 89 Calm 30 1016 10 16.0934 0 0
2:55 am 02:55 Mostly Cloudy 47 8.3 44 6.5 89 89 Calm 30 1016 10 16.0934 0 0
3:15 am 03:15 Cloudy 47 8.2 44 6.6 90 90 Calm 29.97 1015 10 16.0934 0 0
3:35 am 03:35 Cloudy 48 8.7 44 6.6 87 87 Calm 29.94 1014 10 16.0934 0 0
3:55 am 03:55 Cloudy 47 8.6 44 6.5 87 87 Calm 30 1016 10 16.0934 0 0
4:15 am 04:15 Cloudy 47 8.6 44 6.5 87 87 Calm 30 1016 10 16.0934 0 0
4:35 am 04:35 Cloudy 47 8.4 44 6.5 88 88 Calm 30 1016 10 16.0934 0 0
4:55 am 04:55 Partly Cloudy 46 8 43 6.1 88 88 Calm 30 1016 10 16.0934 0 0
5:15 am 05:15 Clear 45 7.4 42 5.7 89 89 Calm 30 1016 10 16.0934 0 0
5:35 am 05:35 Clear 45 7.2 42 5.7 90 90 Calm 30 1016 10 16.0934 0 0
5:55 am 05:55 Clear 45 7.2 42 5.6 90 90 Calm 30 1016 10 16.0934 0 0
6:15 am 06:15 Clear 45 7.2 42 5.5 89 89 Calm 30 1016 10 16.0934 0 0
6:35 am 06:35 Clear 45 7.1 42 5.5 90 90 Calm 30 1016 10 16.0934 0 0
6:55 am 06:55 Sunny 45 7.1 42 5.5 90 90 Calm 30 1016 10 16.0934 0 0
7:15 am 07:15 Sunny 45 7.2 42 5.3 88 88 Calm 30 1016 10 16.0934 0 0
7:35 am 07:35 Partly Cloudy 45 7.4 42 5.4 87 87 Calm 30.03 1017 10 16.0934 0 0
7:55 am 07:55 Partly Cloudy 46 7.9 42 5.6 86 86 Calm 30.03 1017 10 16.0934 0 0
8:15 am 08:15 Partly Cloudy 48 9 43 6.2 83 83 WNW 10 17 30.03 1017 10 16.0934 0 0
8:35 am 08:35 Sunny 50 10 44 6.6 80 80 NW 13 20 30 1016 10 16.0934 0 0
8:55 am 08:55 Sunny 51 10.8 45 7 78 78 NW 15 24 30 1016 10 16.0934 0 0
9:15 am 09:15 Sunny 53 11.5 45 7.2 75 75 NW 10 17 30 1016 10 16.0934 0 0
9:35 am 09:35 Sunny 55 12.5 45 7.4 71 71 NNW 12 19 30 1016 10 16.0934 0 0
9:55 am 09:55 Sunny 55 13 46 7.5 69 69 undefined N/A 29.97 1015 10 16.0934 0 0
10:15 am 10:15 Sunny 57 14 46 7.8 66 66 undefined N/A 29.97 1015 10 16.0934 0 0
10:35 am 10:35 Sunny 58 14.5 46 8 65 65 undefined N/A 29.97 1015 10 16.0934 0 0
10:55 am 10:55 Sunny 60 15.3 46 8 62 62 NNW 13 20 29.97 1015 10 16.0934 0.04 1.016
11:15 am 11:15 Sunny 61 15.9 46 7.6 58 58 NNW 9 15 29.97 1015 10 16.0934 0 0
11:35 am 11:35 Sunny 62 16.5 45 7.3 55 55 N 14 22 29.94 1014 10 16.0934 0 0
11:55 am 11:55 Partly Cloudy 62 16.6 44 6.7 52 52 NNW 16 26 29.94 1014 10 16.0934 0 0
12:15 pm 12:15 Partly Cloudy 63 17.2 46 7.8 54 54 N 15 24 29.94 1014 10 16.0934 0 0
12:35 pm 12:35 Partly Cloudy 63 17.2 43 6.2 49 49 N 14 22 29.94 1014 10 16.0934 0 0
12:55 pm 12:55 Partly Cloudy 64 17.6 44 6.5 48 48 NNW 17 28 29.97 1015 10 16.0934 0 0
1:15 pm 13:15 Partly Cloudy 65 18.1 44 6.7 47 47 N 16 26 29.97 1015 10 16.0934 0 0
1:35 pm 13:35 Partly Cloudy 65 18.3 45 7.3 49 49 N 15 24 29.97 1015 10 16.0934 0 0
1:55 pm 13:55 Partly Cloudy 64 18 44 6.8 48 48 N 14 22 29.97 1015 10 16.0934 0 0
2:15 pm 14:15 Partly Cloudy 66 19 45 7 46 46 N 12 19 29.94 1014 10 16.0934 0 0
2:35 pm 14:35 Partly Cloudy 67 19.5 46 7.5 46 46 N 12 19 29.91 1013 10 16.0934 0 0
2:55 pm 14:55 Partly Cloudy 67 19.6 45 7.2 45 45 N 12 19 29.91 1013 10 16.0934 0 0
3:15 pm 15:15 Mostly Cloudy 68 20.1 43 6.1 40 40 NNW 13 20 29.91 1013 10 16.0934 0 0
3:35 pm 15:35 Mostly Cloudy 68 20.1 43 6.1 40 40 N 9 15 29.91 1013 10 16.0934 0 0
3:55 pm 15:55 Partly Cloudy 69 20.5 42 5.7 38 38 NNW 14 22 29.91 1013 10 16.0934 0 0
4:15 pm 16:15 Partly Cloudy 70 21 43 6.1 38 38 N 13 20 29.91 1013 10 16.0934 0 0
4:35 pm 16:35 Partly Cloudy 70 20.9 43 6 38 38 N 14 22 29.91 1013 10 16.0934 0 0
4:55 pm 16:55 Partly Cloudy 70 21.1 43 6 38 38 NNW 9 15 29.91 1013 10 16.0934 0 0
5:15 pm 17:15 Partly Cloudy 70 21.3 41 5.2 35 35 N 10 17 29.91 1013 10 16.0934 0 0
5:35 pm 17:35 Partly Cloudy 70 21 42 5.4 36 36 N 9 15 29.91 1013 10 16.0934 0 0
5:55 pm 17:55 Sunny 70 21 41 4.8 35 35 N 12 19 29.91 1013 10 16.0934 0 0
6:15 pm 18:15 Partly Cloudy 70 21 41 4.9 35 35 N 9 15 29.91 1013 10 16.0934 0 0
6:35 pm 18:35 Sunny 69 20.8 40 4.5 34 34 N 10 17 29.91 1013 10 16.0934 0 0
6:55 pm 18:55 Sunny 69 20.6 41 4.9 36 36 NNW 8 13 29.91 1013 10 16.0934 0 0
7:15 pm 19:15 Partly Cloudy 68 20.1 43 6 40 40 N 5 7 29.91 1013 10 16.0934 0 0
7:35 pm 19:35 Mostly Cloudy 68 20 45 7 43 43 NNW 6 9 29.91 1013 10 16.0934 0 0
7:55 pm 19:55 Partly Cloudy 66 19 45 7.2 46 46 N 3 6 29.94 1014 10 16.0934 0 0
8:15 pm 20:15 Sunny 65 18.3 44 6.9 48 48 N 5 7 29.97 1015 10 16.0934 0 0
8:35 pm 20:35 Clear 60 15.5 47 8.1 62 62 N 8 13 30 1016 10 16.0934 0 0
8:55 pm 20:55 Clear 57 13.9 47 8.2 69 69 NNE 7 11 30 1016 10 16.0934 0 0
9:15 pm 21:15 Clear 55 13 47 8.3 73 73 NNE 6 9 30.06 1018 10 16.0934 0 0
9:35 pm 21:35 Clear 54 12.1 47 8.2 77 77 NNE 7 11 30.06 1018 10 16.0934 0 0
9:55 pm 21:55 Clear 53 11.4 46 7.8 79 79 NNE 6 9 30.06 1018 10 16.0934 0 0
10:15 pm 22:15 Clear 51 10.8 46 7.5 80 80 NNE 7 11 30.09 1019 10 16.0934 0 0
10:35 pm 22:35 Clear 52 10.9 46 7.5 80 80 NNE 5 7 30.09 1019 10 16.0934 0 0
10:55 pm 22:55 Clear 53 11.6 44 6.9 73 73 NNE 5 7 30.09 1019 10 16.0934 0 0
11:15 pm 23:15 Clear 52 11.1 44 6.6 74 74 N 5 7 30.09 1019 10 16.0934 0 0
11:35 pm 23:35 Clear 49 9.4 43 6.2 81 81 N 6 9 30.12 1020 10 16.0934 0 0
11:55 pm 23:55 Clear 50 10.1 44 6.4 78 78 N 5 7 30.15 1021 10 16.0934 0 0

Powered by AerisWeather